Simultaneous Nadir Overpasses (SNOs) Predictions

Prediction of SNOs between GOES-16 and TERRA Satellite Orbit:

Table of predicted SNOs for the next 14.0 days since TLE Epoch: 8/17/2019
Index Date Time (GOES-16) GOES-16 Lat,Lon TERRA Lat,Lon Distance(km) Time Diff (sec)
1 08/17/2019 03:20:54 -0.01, -75.16 0.42, -73.06 238.63 80
2 08/17/2019 15:44:49 0.02, -75.19 0.65, -78.22 344.41 80
3 08/19/2019 15:32:38 0.01, -75.23 0.03, -75.26 3.99 80
4 08/21/2019 15:17:46 0.01, -75.27 -0.59, -72.30 337.05 80
5 08/22/2019 03:41:49 -0.02, -75.26 -0.51, -77.49 254.06 80
6 08/24/2019 03:26:57 -0.02, -75.31 0.12, -74.54 87.28 80
7 08/24/2019 15:50:53 0.03, -75.34 0.95, -79.70 495.51 80
8 08/26/2019 03:14:47 -0.02, -75.36 0.81, -71.59 428.66 80
9 08/26/2019 15:38:41 0.03, -75.39 0.32, -76.74 154.03 80
10 08/28/2019 15:23:49 0.03, -75.44 -0.31, -73.78 187.72 80
11 08/29/2019 03:47:53 -0.04, -75.43 -0.79, -78.98 402.98 80




NCC Satellite Simultaneous Nadir Overpasses (SNOs) Prediction Service
